CW6892 Weather Reports


time (UTC)temp
C
wind
direction
speed
KPH
gust
KPH
rain 1hr
cm
rain 24hr
cm
rain mn
cm
humidity
%
barometer
mb
20260507155621 26 33 11.3 29.0 0.00 0.00 0.00 10 1012.2
20260507154637 26 61 11.3 27.4 0.00 0.00 0.00 10 1012.3
20260507153658 26 52 14.5 27.4 0.00 0.00 0.00 11 1012.4
20260507152637 26 31 8.0 27.4 0.00 0.00 0.00 11 1012.5
20260507151658 25 35 4.8 20.9 0.00 0.00 0.00 11 1012.5
20260507150658 25 25 6.4 20.9 0.00 0.00 0.00 11 1012.6
20260507145707 25 37 4.8 30.6 0.00 0.00 0.00 12 1012.6
20260507143550 24 30 8.0 24.1 0.00 0.00 0.00 12 1012.5
20260507142541 23 44 9.7 22.5 0.00 0.00 0.00 12 1012.3
20260507141521 23 43 12.9 30.6 0.00 0.00 0.00 12 1012.2
20260507140537 23 40 14.5 30.6 0.00 0.00 0.00 13 1012.2
20260507135554 22 39 9.7 25.7 0.00 0.00 0.00 13 1012.3
20260507134554 22 47 8.0 25.7 0.00 0.00 0.00 13 1012.2
20260507133530 22 18 1.6 17.7 0.00 0.00 0.00 14 1012.1
20260507132502 21 49 1.6 14.5 0.00 0.00 0.00 18 1012.1
20260507131446 20 151 0.0 6.4 0.00 0.00 0.00 24 1012.0
20260507130455 21 15 0.0 0.0 0.00 0.00 0.00 21 1012.0
20260507125447 20 19 0.0 16.1 0.00 0.00 0.00 22 1012.1
20260507124458 19 268 0.0 0.0 0.00 0.00 0.00 27 1012.1
20260507123455 20 268 0.0 0.0 0.00 0.00 0.00 27 1012.1
20260507122503 20 294 4.8 20.9 0.00 0.00 0.00 27 1012.0
20260507121448 20 11 6.4 20.9 0.00 0.00 0.00 27 1012.2
20260507120510 17 75 0.0 6.4 0.00 0.00 0.00 31 1012.3
20260507115453 17 75 0.0 0.0 0.00 0.00 0.00 31 1012.3
20260507114442 18 75 0.0 3.2 0.00 0.00 0.00 30 1012.4
20260507113409 18 75 0.0 0.0 0.00 0.00 0.00 30 1012.5
20260507112432 18 75 0.0 1.6 0.00 0.00 0.00 30 1012.7
20260507111412 18 75 0.0 0.0 0.00 0.00 0.00 31 1012.6
20260507110419 17 75 0.0 4.8 0.00 0.00 0.00 32 1012.7
20260507105436 17 75 0.0 0.0 0.00 0.00 0.00 32 1012.8
20260507104408 17 75 0.0 0.0 0.00 0.00 0.00 32 1012.9
20260507102235 18 75 0.0 0.0 0.00 0.00 0.00 30 1013.0
20260507101248 18 75 0.0 1.6 0.00 0.00 0.00 30 1013.1
20260507095155 18 71 1.6 9.7 0.00 0.00 0.00 30 1013.1
20260507094137 17 73 3.2 9.7 0.00 0.00 0.00 32 1013.1
20260507091951 18 66 1.6 6.4 0.00 0.00 0.00 32 1013.3
20260507090943 17 67 3.2 6.4 0.00 0.00 0.00 32 1013.3
20260507084905 17 63 0.0 3.2 0.00 0.00 0.00 32 1013.4
20260507083924 17 59 0.0 0.0 0.00 0.00 0.00 32 1013.5
20260507082850 17 59 0.0 1.6 0.00 0.00 0.00 34 1013.5
20260507081818 17 57 0.0 3.2 0.00 0.00 0.00 33 1013.5
20260507080841 17 44 0.0 3.2 0.00 0.00 0.00 32 1013.5
20260507074732 19 349 0.0 0.0 0.00 0.00 0.00 29 1013.7
20260507073747 19 349 0.0 0.0 0.00 0.00 0.00 29 1013.8
20260507072726 19 347 3.2 4.8 0.00 0.00 0.00 29 1013.9
20260507071708 18 289 0.0 1.6 0.00 0.00 0.00 30 1013.9
20260507070713 18 251 0.0 0.0 0.00 0.00 0.00 31 1013.9
20260507065656 18 251 0.0 0.0 0.00 0.00 0.00 32 1014.1
20260507064708 18 251 0.0 0.0 0.00 0.00 0.00 31 1014.0
20260507063729 18 251 0.0 0.0 0.00 0.00 0.00 30 1013.9
20260507062715 19 251 0.0 0.0 0.00 0.00 0.00 30 1013.9
20260507060642 18 251 0.0 0.0 0.00 0.00 0.00 31 1013.9
20260507055656 19 251 0.0 0.0 0.00 0.00 0.00 30 1013.9
20260507054647 19 251 0.0 0.0 0.00 0.00 0.00 30 1013.8
20260507053708 20 251 0.0 0.0 0.00 0.00 0.00 29 1013.8
20260507052713 20 251 0.0 0.0 0.00 0.00 0.00 29 1013.9
20260507051646 20 251 0.0 0.0 0.00 0.00 0.00 28 1013.9
20260507050626 21 251 0.0 0.0 0.00 0.00 0.00 27 1013.9
20260507044527 21 251 0.0 0.0 0.00 0.00 0.00 27 1014.0
20260507043517 21 251 0.0 0.0 0.00 0.00 0.00 27 1013.8
20260507042538 21 251 0.0 0.0 0.00 0.00 0.00 27 1013.7
20260507041526 21 251 0.0 0.0 0.00 0.00 0.00 27 1013.5
20260507040458 21 251 0.0 0.0 0.00 0.00 0.00 28 1013.3
20260507035512 21 251 0.0 0.0 0.00 0.00 0.00 28 1013.3
20260507034522 21 251 0.0 0.0 0.00 0.00 0.00 28 1013.2
20260507033450 21 251 0.0 0.0 0.00 0.00 0.00 28 1013.1
20260507032456 21 252 0.0 0.0 0.00 0.00 0.00 27 1012.8
20260507031430 22 252 0.0 0.0 0.00 0.00 0.00 26 1012.6
20260507030453 22 252 0.0 1.6 0.00 0.00 0.00 25 1012.4
20260507025423 22 251 1.6 9.7 0.00 0.00 0.00 25 1012.3
20260507024402 23 235 1.6 14.5 0.00 0.00 0.00 24 1012.4
20260507023425 23 237 4.8 14.5 0.00 0.00 0.00 24 1012.3
20260507022412 23 248 3.2 12.9 0.00 0.00 0.00 24 1012.1
20260507020255 23 233 3.2 16.1 0.00 0.00 0.00 24 1011.9
20260507015249 24 242 3.2 16.1 0.00 0.00 0.00 23 1011.8
20260507014233 24 247 4.8 16.1 0.00 0.00 0.00 22 1011.8
20260507013242 25 254 8.0 17.7 0.00 0.00 0.00 22 1011.7
20260507012306 25 221 4.8 19.3 0.00 0.00 0.00 22 1011.7
20260507010209 25 286 4.8 17.7 0.00 0.00 0.00 21 1011.7
20260507005229 25 225 6.4 16.1 0.00 0.00 0.00 21 1011.7
20260507004211 25 203 6.4 12.9 0.00 0.00 0.00 22 1011.7
20260507003142 25 240 6.4 16.1 0.00 0.00 0.00 22 1011.7
20260507001038 25 240 8.0 17.7 0.00 0.00 0.00 22 1011.7
20260506234952 25 252 9.7 27.4 0.00 0.00 0.00 21 1011.7
20260506233938 25 278 9.7 27.4 0.00 0.00 0.00 21 1011.7
20260506231831 25 248 11.3 27.4 0.00 0.00 0.00 22 1011.6
20260506224530 25 215 11.3 17.7 0.00 0.00 0.00 22 1012.0
20260506223545 25 216 8.0 19.3 0.00 0.00 0.00 22 1012.2
20260506222602 25 240 8.0 19.3 0.00 0.00 0.00 21 1012.4
20260506221614 25 196 11.3 19.3 0.00 0.00 0.00 21 1012.5
20260506220613 25 238 4.8 14.5 0.00 0.00 0.00 20 1012.6
20260506215612 25 227 6.4 24.1 0.00 0.00 0.00 22 1012.6
20260506214606 24 264 11.3 25.7 0.00 0.00 0.00 22 1012.9
20260506213630 25 243 11.3 25.7 0.00 0.00 0.00 22 1013.0
20260506212648 24 197 11.3 25.7 0.00 0.00 0.00 23 1013.0
20260506211619 23 190 12.9 25.7 0.00 0.00 0.00 24 1013.2
20260506205517 23 200 11.3 29.0 0.00 0.00 0.00 25 1013.5
20260506204501 23 202 11.3 29.0 0.00 0.00 0.00 24 1013.7
20260506203441 23 248 9.7 19.3 0.00 0.00 0.00 25 1013.8
20260506202505 23 219 9.7 19.3 0.00 0.00 0.00 25 1013.9
20260506201454 23 188 6.4 20.9 0.00 0.00 0.00 25 1013.9
20260506200519 23 275 8.0 22.5 0.00 0.00 0.00 25 1014.1
20260506195516 22 219 9.7 22.5 0.00 0.00 0.00 26 1014.2
20260506194530 22 190 6.4 25.7 0.00 0.00 0.00 26 1014.3
20260506191244 22 212 9.7 22.5 0.00 0.00 0.00 27 1014.5
20260506185138 21 271 9.7 19.3 0.00 0.00 0.00 28 1014.5
20260506184202 21 183 6.4 20.9 0.00 0.00 0.00 28 1014.6
20260506183140 21 140 9.7 20.9 0.00 0.00 0.00 28 1014.8
20260506182107 21 215 8.0 14.5 0.00 0.00 0.00 28 1015.0
20260506181051 21 225 6.4 17.7 0.00 0.00 0.00 28 1015.1
20260506175108 21 205 6.4 17.7 0.00 0.00 0.00 29 1015.3
20260506172930 21 202 3.2 14.5 0.00 0.00 0.00 30 1015.3
20260506171945 20 228 6.4 14.5 0.00 0.00 0.00 31 1015.3
20260506170952 20 202 4.8 11.3 0.00 0.00 0.00 31 1015.2
20260506164819 19 236 1.6 9.7 0.00 0.00 0.00 33 1015.1
20260506163835 19 211 3.2 0.0 0.00 0.00 0.00 33 1015.0
20260506162818 19 237 3.2 11.3 0.00 0.00 0.00 33 1015.0
20260506161747 18 227 1.6 0.0 0.00 0.00 0.00 34 1015.0
20260506160748 18 199 6.4 12.9 0.00 0.00 0.00 36 1015.0